Het weer op Woensdrecht:2014/09/03 04:25 EHWO 030425Z AUTO 07006KT 0700 FG VV000 15/14 Q1023 RED
Het weer op Amsterdam:2014/09/03 04:25 EHAM 030425Z 07005KT 6000 MIFG NSC 12/12 Q1024 NOSIG

Menu promotie
· Startpagina
· Verslag FLY-IN 2009
· De vloot
· Kennismaken


Buien Radar


Picasa foto link
ACV externe fotolink


Inloggen voor leden
WelkomAnonymous!


Lid nummer    
Wachtwoord 
Code: Code
Type Code in
[Wachtwoord vergeten?]


 
Sorry, deze module is niet actief (acv_addon_4)

[ Ga terug ]
copyright (c) ACV 2006 - 2014

All logos and trademarks in this site are property of their respective owner. The comments are property of their posters, all the rest 2005 by me.
PHP-Nuke Copyright © 2005 by Francisco Burzi. This is free software, and you may redistribute it under the GPL. PHP-Nuke comes with absolutely no warranty, for details, see the license.
Pagina Rendering: 0.31 Seconden